#timestamp,LO_Frequency,Hit 
1504281615.3,286047005.3,N
1504281635.1,286047004.0,N
1504281655.9,286047004.3,N
1504281675.7,286047005.9,N
1504281695.5,286047000.0,N
1504281715.4,286046998.2,N
1504281735.2,286046999.5,N
1504281755.0,286046996.9,N
1504281755.9,286046996.9,N
1504281775.8,286046996.9,N
1504281795.6,286047000.3,N
1504281815.4,286047002.4,N
1504281835.3,286047001.9,N
1504281855.1,286047003.0,N
1504281856.0,286047003.0,N
1504281875.8,286047002.0,N
1504281895.6,286047005.1,N
1504281915.5,286047005.4,N
1504281935.3,286047003.1,N
1504281955.1,286047002.8,N
1504281975.9,286047000.1,N
1504281995.7,286047001.4,N
1504282015.5,286047001.1,N
1504282035.4,286047001.2,N
1504282055.2,286046998.3,N
1504282075.0,286047000.0,N
1504282075.9,286047000.0,N
1504282095.8,286047000.9,N
1504282115.6,286047002.3,N
1504282135.4,286047002.7,N
1504282155.3,286047003.4,N
1504282175.1,286047004.9,N
1504282176.0,286047004.9,N
1504282195.8,286047006.9,N
1504282215.7,286047005.3,N
1504282235.5,286047004.6,N
1504282255.3,286047004.4,N
1504282275.2,286047001.4,N
1504282295.9,286047002.3,N
1504282315.7,286047000.4,N
1504282335.5,286047000.9,N
1504282355.4,286047000.5,N
1504282375.2,286046998.5,N
1504282395.0,286046999.8,N
1504282395.9,286046999.8,N
1504282415.8,286047002.1,N
1504282435.6,286047002.0,N
1504282455.4,286046999.3,N
1504282475.3,286046996.9,N
1504282495.1,286046996.7,N
1504282496.0,286046996.7,N
1504282515.8,286046998.2,N
1504282535.7,286046999.5,N
1504282555.5,286046996.1,N
1504282575.3,286046992.1,N
1504282595.2,286046992.5,N
1504282615.9,286046994.5,N
1504282635.7,286046990.8,N
1504282655.6,286046989.9,N
1504282675.4,286046987.1,N
1504282695.2,286046990.9,N
1504282715.0,286046989.7,N
1504282715.9,286046989.7,N
1504282735.8,286046987.0,N
1504282755.6,286046988.6,N
1504282775.4,286046991.1,N
1504282795.3,286046993.6,N
1504282815.1,286046992.3,N
1504282835.8,286046988.7,N
1504282855.7,286046995.5,N
1504282875.5,286046993.8,N
1504282895.3,286046996.9,N
1504282915.2,286046993.4,N
1504282935.9,286046990.9,N
1504282955.7,286046992.5,N
1504282975.6,286046994.8,N
1504282995.4,286046992.0,N
1504283015.2,286046989.1,P
1504283035.1,286046996.3,N
1504283036.0,286046996.3,N
1504283055.8,286046999.5,N
1504283075.6,286046999.3,N
1504283095.5,286046995.6,N
1504283115.3,286047000.7,N
1504283135.1,286046998.6,N
1504283155.8,286046998.4,N
1504283175.7,286047002.3,N
1504283195.5,286047002.7,N
1504283215.3,286046999.8,N
1504283235.2,286046997.7,N
1504283255.0,286046995.4,N
1504283255.9,286046995.4,N
1504283275.7,286046996.0,N
1504283295.6,286046994.5,N
1504283315.4,286046990.6,N
1504283335.2,286046990.1,N
1504283355.1,286046996.0,N
1504283356.0,286046996.0,N
1504283375.8,286046995.2,N
1504283395.6,286046994.7,N
1504283415.5,286046994.4,N
1504283435.3,286046992.3,N
1504283455.1,286046990.2,N
1504283475.9,286046994.8,N
1504283495.7,286046994.0,N
1504283515.5,286046996.2,N
1504283535.3,286046993.4,N
1504283555.2,286046991.4,N
1504283575.0,286046989.0,P
1504283575.9,286046989.0,P
1504283595.8,286046994.2,N
1504283615.6,286046991.1,N
1504283635.4,286046991.5,P
1504283655.3,286046998.6,P
1504283675.1,286046999.5,N
1504283676.0,286046999.5,N
1504283695.8,286046999.9,N
1504283715.7,286046999.8,N
1504283735.5,286047004.0,N
1504283755.3,286047004.1,N
1504283775.1,286047003.2,N
1504283795.9,286047008.9,N
1504283815.7,286047009.0,N
1504283835.5,286047009.1,N
1504283855.4,286047011.9,N
1504283875.2,286047011.4,N
1504283895.0,286047010.9,N
1504283895.9,286047010.9,N
1504283915.8,286047013.3,N
1504283935.6,286047011.2,N
1504283955.4,286047012.8,N
1504283975.3,286047014.5,N
1504283995.1,286047014.3,N
1504283996.0,286047014.3,N
1504284015.8,286047015.5,N
1504284035.7,286047011.5,N
1504284055.5,286047009.9,N
1504284075.3,286047010.4,N
1504284095.1,286047012.1,N
1504284115.9,286047009.8,N
1504284135.7,286047009.9,N
1504284155.5,286047011.6,N
1504284175.4,286047006.5,N
1504284195.2,286047004.3,N
1504284215.0,286047001.9,N
1504284215.9,286047001.9,N
1504284235.8,286047003.1,N
1504284255.6,286047002.5,N
1504284275.4,286047003.3,N
1504284295.3,286047004.4,N
1504284315.1,286047001.9,N
1504284316.0,286047001.9,N
1504284335.8,286047005.9,N
1504284355.7,286047001.9,N
1504284375.5,286047002.4,N
1504284395.3,286047000.3,N
1504284415.2,286047004.1,N
1504284435.9,286047004.8,N
1504284455.7,286047003.6,N
1504284475.6,286047005.6,N
1504284495.4,286046998.6,N
1504284515.2,286046997.5,N
1504284535.0,286046996.8,N
1504284535.9,286046996.8,N
1504284555.8,286047001.1,N
1504284575.6,286047001.7,N
1504284595.4,286047002.3,N
1504284615.3,286047002.4,N
1504284635.1,286047001.7,N
1504284655.8,286047004.0,N
1504284675.7,286047001.8,N
1504284695.5,286047004.2,N
1504284715.3,286047005.8,N
1504284735.2,286047005.5,N
1504284755.9,286047007.4,P
1504284775.7,286047002.4,N
1504284795.6,286047004.1,N
1504284815.4,286047005.5,N
1504284835.2,286047002.8,N
1504284855.1,286047000.4,N
1504284856.0,286047000.4,N
1504284875.8,286046998.4,N
1504284895.6,286046998.9,N
1504284915.5,286046991.9,N
1504284935.3,286046990.9,N
1504284955.1,286046987.3,N
1504284975.8,286046983.8,N
1504284995.7,286046982.2,N
1504285015.5,286046981.4,N
1504285035.3,286046972.5,P
1504285055.2,286046973.7,N
1504285075.0,286046974.9,N
1504285075.9,286046974.9,N
1504285095.7,286046974.3,N
1504285115.6,286046974.3,P
1504285135.4,286046994.9,N
1504285155.3,286046989.0,N
1504285175.1,286046994.4,N
1504285176.0,286046994.4,N
1504285195.8,286046991.7,N
